Theta_e
306 306 306 307 308 308 309 309 309 308 309 302 300 301 294 292 289 300 304 305 301 292 286 287 286 285 287 291 291 292 289 289 290 290 290 287 288 288 288 289 289 290 291 292 291 291 288 290 289 291 292 293 293 294 299 302 300 300 297 299 298 296 289 287 289 293 294 293 296 296 295 298 296 297 298 297 292 293 291 290 291 287 289 286 286 283 289
306 307 307 307 307 309 308 308 308 308 306 303 301 296 292 293 292 294 302 304 299 290 281 281 283 284 286 288 287 290 289 290 289 290 289 290 287 287 287 287 293 290 292 293 289 293 284 291 291 289 291 291 295 296 299 302 299 298 296 293 299 290 292 290 285 285 286 288 289 290 289 295 292 294 296 297 297 297 295 291 289 286 288 289 286 280 287
306 308 308 307 308 308 308 308 308 308 307 304 301 293 294 291 293 294 296 300 297 286 287 285 284 284 284 285 285 288 288 289 291 291 287 288 288 289 287 289 291 290 294 291 293 293 290 286 292 292 291 291 291 296 299 301 300 301 302 298 302 292 292 289 282 278 276 276 278 281 286 288 292 295 296 297 296 294 292 286 287 281 287 290 286 285 293
304 307 307 308 309 308 308 307 307 307 306 304 302 297 293 288 281 285 287 292 289 288 291 289 287 285 285 284 286 288 286 288 290 292 287 287 289 289 288 291 292 289 290 288 288 289 290 289 287 289 289 291 291 294 298 299 300 297 297 299 300 289 291 291 289 286 283 285 288 293 294 293 288 290 293 294 296 296 294 292 288 285 288 287 289 291 292
303 305 306 307 306 306 306 306 305 305 304 303 299 293 293 291 285 283 280 286 286 286 289 288 289 285 288 283 286 284 287 288 288 290 288 289 289 288 289 289 287 286 287 286 286 290 287 287 288 289 290 290 292 293 297 298 298 294 296 299 296 288 288 290 291 291 291 292 291 293 292 289 292 291 291 294 294 295 292 287 285 293 288 284 291 294 291
303 303 304 305 305 306 306 306 305 305 304 304 299 288 290 285 285 287 289 285 281 283 285 288 288 289 289 284 288 286 285 286 285 287 288 289 290 288 288 288 289 290 288 288 284 286 284 287 285 290 290 290 292 291 293 295 294 296 298 301 296 289 286 291 291 290 292 293 292 287 291 290 290 292 292 292 294 294 289 289 292 292 286 284 292 294 292
303 303 303 303 303 305 305 305 305 304 302 301 297 288 288 289 287 288 290 286 286 288 287 289 288 287 288 286 287 285 285 285 286 285 286 289 288 290 284 287 289 289 291 289 285 285 282 282 288 287 287 289 290 288 290 293 295 297 296 294 292 293 287 290 291 289 291 291 291 292 287 288 290 290 292 293 294 293 294 293 295 294 291 293 294 294 294
303 303 303 303 303 303 304 304 304 304 302 300 292 288 287 286 287 284 291 291 288 288 288 287 287 285 288 284 285 286 285 284 285 287 288 285 286 290 288 288 289 289 290 289 286 287 288 287 283 289 289 286 291 290 291 289 292 296 294 293 292 292 287 291 290 286 287 290 292 292 291 289 287 289 290 291 291 291 293 294 294 295 294 294 293 293 293
302 302 303 303 302 302 303 303 303 303 303 294 290 288 289 290 291 294 289 285 287 288 287 286 286 285 286 284 285 286 286 285 288 285 287 287 285 287 288 289 288 290 289 289 289 292 291 291 290 291 291 287 292 290 288 294 290 293 292 293 292 292 287 293 289 284 284 288 289 290 290 290 288 288 289 290 289 287 289 289 293 292 291 293 293 290 291
301 302 302 303 303 303 302 302 303 303 302 293 291 288 292 293 293 295 293 286 289 286 288 287 286 283 286 286 286 286 287 288 289 285 288 287 290 291 290 290 289 288 289 288 290 292 291 295 295 294 296 296 290 288 290 294 292 291 291 295 290 290 288 286 286 282 282 287 289 288 287 285 282 284 288 290 291 291 292 292 293 293 294 290 287 289 296
300 301 301 302 302 302 303 303 303 303 299 293 290 288 288 291 292 293 293 285 286 287 286 285 285 287 288 287 286 288 288 289 290 285 283 289 288 292 293 291 290 288 288 291 295 295 293 292 291 290 295 294 293 289 290 290 294 293 292 288 288 289 288 287 289 281 282 285 286 287 282 275 277 290 293 292 290 290 289 289 291 293 294 292 294 294 296
300 300 301 301 301 301 301 301 301 301 299 294 294 289 289 288 291 292 289 284 284 288 286 284 286 286 287 287 288 287 287 288 288 291 286 287 288 291 294 293 292 286 290 294 295 295 297 298 297 295 293 292 291 290 292 291 288 292 295 292 288 287 287 287 287 283 281 284 283 279 273 275 287 291 293 293 292 292 290 291 292 293 294 294 293 294 295
301 300 301 301 301 301 301 300 300 299 298 295 294 289 290 289 292 290 290 287 283 285 284 284 286 287 288 288 287 287 289 289 290 291 290 288 287 289 291 292 291 290 294 294 296 295 291 285 287 288 288 290 288 288 288 289 291 289 291 294 291 287 287 287 285 285 285 282 280 272 273 285 289 290 291 293 292 291 291 289 291 292 293 294 293 294 295
300 300 300 301 301 301 300 300 299 299 297 296 291 288 288 290 292 290 289 286 283 284 287 286 286 285 287 287 286 286 288 288 289 291 288 290 289 289 290 292 295 295 295 297 294 291 286 286 283 283 281 283 281 281 286 287 290 289 290 290 290 291 288 287 283 286 278 280 279 278 285 284 286 287 288 290 288 289 287 283 288 293 294 294 293 294 295
300 300 300 300 301 301 301 299 299 298 296 294 291 288 288 288 289 291 289 290 284 284 286 283 285 286 286 286 287 286 286 286 287 285 286 290 289 288 290 292 296 295 296 294 291 291 286 284 279 279 280 279 275 277 283 282 284 287 290 290 289 288 286 287 283 282 284 279 277 278 277 274 280 288 291 294 295 295 295 290 287 294 295 296 295 294 295
299 299 299 300 300 300 300 300 299 298 296 294 291 289 288 288 288 291 290 289 287 282 283 282 285 288 286 286 288 286 285 285 285 285 285 283 284 288 290 292 295 296 295 292 291 288 284 280 277 278 276 277 276 272 275 280 280 283 286 289 289 290 290 287 284 281 282 279 276 275 273 277 286 288 292 294 295 295 297 290 283 293 295 296 296 295 296
299 299 298 299 300 300 300 300 299 297 296 295 290 289 287 289 287 290 290 287 286 281 282 283 282 286 287 285 286 286 288 285 287 284 282 283 284 285 288 293 295 295 295 292 289 287 282 279 279 280 279 279 275 276 279 277 277 278 283 285 285 285 286 286 283 280 281 279 277 275 279 279 286 290 292 294 295 296 292 279 280 292 295 297 297 296 296
298 298 298 299 299 299 299 299 299 298 296 295 291 288 287 289 288 289 290 286 282 280 284 283 284 287 287 287 287 286 288 286 285 286 286 283 283 285 286 288 288 292 294 288 286 283 282 281 278 278 277 282 283 282 275 278 275 278 278 280 280 281 283 284 280 280 281 280 279 281 282 288 291 291 293 293 298 293 282 277 286 296 296 297 298 297 298
297 297 298 298 299 298 299 299 299 298 297 295 292 290 287 288 289 291 289 286 285 281 283 286 285 284 283 284 287 287 288 289 288 284 283 283 285 286 288 287 292 287 291 286 286 283 281 280 283 281 279 279 281 278 282 277 278 282 282 279 280 281 282 282 283 280 279 280 278 278 282 289 293 293 296 296 291 282 280 291 298 297 295 294 297 296 293
296 296 297 298 298 298 298 298 298 298 297 295 292 286 287 289 289 289 290 284 284 281 283 283 284 283 284 286 286 287 286 288 289 287 285 283 285 289 289 285 289 288 286 287 283 285 282 280 281 280 280 281 281 284 280 280 284 280 280 284 281 281 279 278 279 282 283 281 278 277 274 286 294 294 290 295 287 287 294 296 294 295 295 296 295 295 294
295 296 296 297 297 297 297 297 298 297 297 295 292 288 287 288 288 290 292 290 285 281 281 286 285 284 285 283 283 284 288 289 289 288 288 287 289 289 280 282 286 287 284 285 281 282 283 281 280 280 283 284 283 281 279 280 278 284 285 284 282 287 279 280 282 285 278 278 276 278 285 289 295 294 287 292 294 298 296 298 295 292 291 294 297 295 296
295 295 296 296 297 297 296 297 297 297 296 295 293 289 285 286 288 289 290 290 285 281 282 285 286 285 285 286 286 287 286 285 284 288 288 286 287 288 287 288 288 288 288 288 285 283 283 283 281 279 279 280 282 281 279 279 277 281 280 284 279 287 284 286 281 287 283 281 285 289 293 294 296 297 296 297 298 295 295 297 297 295 296 292 293 293 293
293 294 294 295 295 296 296 296 296 296 296 295 290 285 283 284 286 289 290 284 285 286 286 284 285 287 288 288 289 288 289 289 289 287 288 290 285 285 285 288 287 288 287 290 288 287 286 283 281 284 281 282 282 280 278 280 280 281 281 287 287 289 290 286 287 287 291 291 291 293 291 291 294 295 294 295 297 293 292 296 295 290 290 291 294 293 293
293 293 293 294 295 295 295 295 295 296 295 294 291 287 285 285 284 286 288 286 283 280 282 284 282 279 280 281 285 287 287 287 287 288 287 289 287 283 285 285 287 285 285 287 288 289 285 285 285 283 282 284 283 281 279 277 278 280 281 284 286 286 288 287 286 287 286 282 291 291 291 292 292 293 294 293 293 295 293 294 293 291 291 292 292 292 292
292 292 293 293 293 294 295 294 294 294 294 293 289 289 288 285 285 283 285 282 279 281 276 278 278 282 283 285 285 284 286 286 288 288 288 287 291 288 286 286 287 288 287 286 286 287 285 283 281 281 281 285 284 281 284 281 280 284 280 284 284 284 288 286 287 286 285 286 287 288 289 289 291 292 292 294 294 291 290 292 292 291 290 290 291 290 290
292 292 292 292 293 293 294 294 294 293 293 292 289 285 284 282 285 287 286 285 282 281 277 274 277 283 283 284 282 284 286 286 287 288 288 287 287 289 285 284 284 285 285 285 285 285 281 279 278 278 282 283 287 282 280 284 284 286 283 285 288 286 289 284 287 285 288 290 290 290 291 291 291 289 289 291 292 291 289 288 289 289 289 290 290 290 292
291 292 291 292 292 292 293 293 293 293 293 291 287 285 285 285 286 284 282 283 282 278 278 274 277 280 283 280 283 284 284 285 287 288 288 288 288 288 288 286 284 284 284 282 280 277 275 275 278 279 280 281 283 281 282 282 282 281 280 284 286 286 284 288 286 283 284 285 287 288 285 286 288 286 288 290 289 290 288 289 288 287 288 289 289 290 291
291 291 291 291 292 292 293 293 293 293 292 289 287 285 284 286 286 286 285 282 282 279 276 274 275 279 283 281 283 283 284 285 286 286 286 286 287 286 286 286 286 285 285 284 280 279 277 280 279 277 277 278 281 279 279 280 280 278 279 282 287 285 286 286 284 283 283 288 289 288 290 289 290 291 290 288 288 290 289 289 289 289 290 290 289 288 288
291 291 291 291 291 292 293 293 293 294 293 287 281 282 282 286 288 290 287 283 281 279 279 278 279 277 276 277 283 282 283 284 285 285 285 285 285 285 285 284 283 282 282 282 282 281 280 280 281 279 279 283 282 274 276 276 276 278 283 285 286 289 290 289 289 289 289 289 289 289 288 288 289 288 288 289 289 288 287 287 288 288 288 288 288 288 287
291 291 291 291 291 292 292 292 294 294 290 280 280 276 274 282 287 288 290 285 281 280 277 274 272 273 275 277 275 278 281 284 284 285 284 284 284 283 283 284 284 284 283 281 281 278 280 279 279 280 280 282 280 275 275 274 273 280 285 286 288 288 288 290 291 289 288 288 288 288 287 286 286 287 286 286 287 286 285 285 286 287 287 287 286 286 287
291 291 291 290 290 291 292 292 293 293 289 276 275 270 269 270 281 289 290 285 279 279 274 276 273 274 273 276 276 275 277 282 283 283 283 282 282 282 282 284 283 285 282 281 280 278 278 275 278 279 280 281 280 274 275 271 273 274 280 285 286 287 287 287 288 288 287 288 287 284 284 284 285 283 283 282 282 283 283 284 285 285 285 285 285 286 286
290 290 290 290 290 292 292 292 291 291 288 285 281 277 277 281 285 289 290 285 281 280 273 272 269 270 270 276 273 272 275 278 279 281 281 283 281 283 282 283 281 284 284 279 279 277 277 278 277 278 279 284 282 271 270 271 274 277 281 283 284 285 284 283 284 284 282 283 282 282 282 282 281 281 282 282 282 283 283 283 284 284 284 285 286 286 286
290 290 290 289 291 291 291 291 291 290 287 289 292 290 291 292 291 290 287 281 278 269 270 272 269 271 271 272 273 273 276 277 275 277 277 281 277 280 278 281 281 280 285 280 276 275 277 277 278 277 279 281 278 274 270 273 277 280 280 280 280 280 280 280 280 280 281 281 281 280 280 280 281 281 281 281 282 282 282 282 283 284 283 282 282 283 283
290 290 290 290 291 291 290 290 290 290 286 279 278 282 286 291 289 290 284 276 273 270 271 270 266 266 269 271 273 274 278 276 273 276 273 277 274 278 276 279 279 277 278 278 277 275 276 277 276 275 277 276 276 273 271 275 279 279 280 280 281 281 280 279 280 279 277 276 277 278 279 279 280 281 281 281 282 283 283 283 283 281 281 282 282 283 284
289 289 290 290 290 290 289 287 279 278 274 276 275 281 287 290 289 285 281 277 272 269 269 270 270 267 268 266 263 270 274 275 273 275 274 276 279 275 276 276 277 274 275 281 275 275 273 275 279 275 274 274 273 272 274 277 278 279 279 278 275 276 279 280 279 272 270 272 274 276 278 278 278 278 280 281 281 281 281 280 280 280 279 279 279 280 281
289 290 290 289 289 288 284 282 280 278 277 277 280 287 290 289 287 280 277 277 277 267 268 268 268 266 267 265 266 272 278 273 271 270 272 276 276 276 273 274 273 276 276 275 274 274 274 280 277 272 276 272 272 275 276 277 277 277 275 272 269 270 271 270 269 267 268 270 273 275 276 278 278 278 278 279 279 276 274 273 275 275 273 274 275 276 276
290 289 289 286 278 276 271 272 280 279 280 284 286 291 289 287 279 280 280 277 277 276 271 267 268 268 266 267 266 266 274 271 272 271 270 273 273 276 275 273 271 276 275 274 274 273 276 281 274 271 272 271 275 276 273 272 273 274 270 266 265 265 266 266 265 266 269 274 275 278 277 274 273 275 274 273 272 271 270 270 271 271 270 271 272 273 274
289 286 276 273 267 264 265 270 274 281 288 287 286 279 273 277 273 274 272 269 274 279 271 268 267 266 265 269 270 277 275 268 270 272 269 269 273 271 276 274 275 278 270 272 273 279 276 275 273 272 273 277 279 275 266 265 264 264 263 262 262 262 263 263 264 267 268 271 275 273 268 269 269 269 268 267 267 267 268 270 270 271 271 271 271 272 271
282 276 272 268 267 265 269 271 282 286 286 282 276 270 268 265 267 263 263 267 273 272 270 268 268 264 266 266 269 279 274 270 265 264 269 275 274 268 274 270 275 275 270 269 271 279 271 272 272 272 271 273 276 269 260 262 260 260 260 260 260 261 261 261 262 263 264 266 266 264 263 264 264 264 265 264 265 266 267 268 268 269 269 268 268 268 268
274 273 269 262 265 273 279 282 284 284 281 272 263 261 261 265 266 264 268 263 267 270 272 269 268 266 265 269 269 270 277 271 267 267 263 268 278 268 269 266 271 270 266 267 270 274 270 267 271 271 270 275 272 259 258 259 259 258 259 258 259 259 260 259 260 261 260 261 261 261 262 262 262 262 262 262 263 262 263 264 265 265 265 265 266 266 266
270 271 269 271 272 270 275 276 273 269 267 261 258 259 261 263 264 264 268 264 262 262 267 270 273 272 270 264 267 269 275 275 268 265 266 265 275 271 264 265 273 266 266 266 272 269 270 266 268 267 272 266 260 258 257 258 258 257 258 257 258 258 258 258 259 259 259 258 259 259 260 260 260 260 261 260 260 260 261 261 262 263 263 263 264 264 266
276 276 273 273 274 274 272 272 269 267 264 259 259 258 260 262 264 265 266 263 263 263 266 270 270 269 268 269 269 268 269 269 273 274 269 266 276 268 264 262 263 262 261 268 267 266 270 267 268 270 268 256 258 256 257 257 257 256 256 257 256 257 257 257 257 257 258 257 258 258 259 258 258 259 259 259 259 259 260 260 260 261 262 263 264 264 265
283 279 276 265 263 266 264 264 264 262 260 258 256 256 255 255 256 259 262 268 263 262 264 266 268 273 271 268 268 269 270 277 274 271 268 265 276 271 266 264 263 261 266 268 265 265 263 265 265 269 261 257 257 255 256 256 256 255 256 256 256 256 256 256 256 256 257 257 256 257 257 257 257 258 259 259 259 259 259 260 261 261 262 262 263 264 264
279 276 268 258 263 262 263 262 265 263 262 257 256 256 256 257 261 262 260 265 264 263 263 266 265 267 266 265 266 270 269 272 276 269 268 271 270 267 269 265 266 271 270 264 265 263 266 266 270 270 260 256 255 255 256 256 255 255 254 256 255 255 255 255 256 255 255 256 256 256 257 257 257 258 258 259 259 258 259 260 261 262 262 263 262 263 264
269 264 259 260 258 260 261 260 258 257 257 258 263 254 255 256 254 255 262 263 265 265 260 259 263 261 262 262 260 263 271 266 273 267 264 269 266 269 266 265 268 267 266 263 263 261 262 266 267 259 258 256 257 256 255 255 255 254 254 254 254 254 254 254 254 254 254 255 255 256 256 256 257 257 258 259 260 260 260 260 261 262 262 262 262 262 263
261 262 258 258 259 257 256 254 253 256 257 259 261 257 256 255 256 259 262 260 259 258 260 258 257 260 261 260 263 264 259 262 265 265 266 267 266 263 268 267 264 261 262 263 261 262 265 268 265 262 258 257 258 256 254 253 252 252 252 252 253 253 252 253 252 253 254 254 255 255 256 257 257 257 257 259 259 260 260 261 261 261 261 261 261 262 262
264 260 255 254 257 255 255 257 256 256 257 256 255 257 255 256 256 261 259 256 258 258 258 255 260 262 261 262 263 261 258 258 260 263 266 264 263 267 272 266 262 263 260 260 262 264 266 265 261 259 256 257 255 253 252 252 251 250 251 251 251 252 252 252 252 253 253 254 254 255 255 256 257 258 258 259 259 260 260 260 260 261 260 260 260 261 261
263 261 259 259 258 255 257 256 252 255 253 256 254 253 255 255 258 260 258 256 258 259 258 260 261 260 261 260 260 261 259 260 261 262 265 265 269 266 265 265 264 266 265 262 264 268 265 263 261 261 258 253 252 253 253 253 251 250 251 251 251 251 251 251 251 252 252 252 253 254 254 255 256 257 257 258 258 259 259 259 258 258 258 258 258 258 259
260 257 262 256 254 252 255 255 257 259 257 253 253 255 256 258 257 258 258 255 258 258 255 257 256 258 259 260 259 260 260 264 260 261 265 262 261 261 262 260 261 261 266 268 269 264 261 263 259 254 252 251 251 251 252 252 252 251 251 251 251 251 251 251 251 251 252 252 253 253 254 255 256 257 257 257 257 257 257 256 256 256 256 256 257 257 258
260 259 255 254 255 256 254 253 258 257 254 255 256 257 255 256 255 257 257 257 255 259 261 266 267 262 257 260 257 257 255 256 259 264 263 261 260 259 259 257 258 260 263 258 255 255 259 259 256 254 254 253 253 252 252 252 253 253 252 252 251 251 251 251 251 252 252 253 254 254 255 255 256 256 256 257 257 257 256 256 256 256 256 256 256 256 256
256 258 255 253 261 259 258 257 261 255 253 258 259 258 256 258 259 259 257 256 258 259 259 259 259 255 256 255 255 254 257 260 260 261 262 261 261 259 259 259 263 265 262 260 258 259 260 259 256 256 254 253 253 252 252 251 252 252 252 251 251 252 252 252 253 254 255 256 256 257 256 256 256 257 258 259 258 258 258 258 258 258 258 258 258 257 256
256 259 260 254 249 253 256 255 255 257 259 257 260 258 259 258 257 255 258 261 259 260 257 254 255 254 253 254 257 258 261 262 260 258 256 260 261 260 257 262 266 261 258 259 260 259 256 256 254 253 253 255 255 253 252 252 252 252 252 252 253 253 254 254 255 256 257 257 257 256 256 257 257 258 259 259 259 258 258 258 259 259 259 259 258 258 257
Wind_Speed
9 6 7 12 16 18 19 24 26 25 30 18 10 8 7 5 6 9 17 18 22 15 8 3 5 5 6 9 9 7 4 8 5 13 2 3 2 3 3 7 10 3 6 12 9 13 9 16 11 9 7 6 5 2 12 12 17 12 7 8 4 2 2 5 3 1 2 3 2 5 6 1 9 10 8 8 11 12 10 8 1 5 6 9 7 9 12
24 10 8 10 16 20 21 22 25 27 28 13 9 10 5 8 12 8 10 15 17 15 9 10 8 8 7 7 6 2 5 9 10 9 4 5 3 3 4 2 5 9 3 12 13 13 6 6 8 5 2 4 3 9 13 18 11 14 11 13 12 7 6 8 9 5 2 2 1 2 1 2 3 6 12 13 13 15 10 5 2 4 9 9 8 15 9
33 19 9 9 13 17 18 23 25 30 22 15 5 9 7 8 5 8 5 5 4 7 3 15 14 12 15 13 11 11 6 4 3 10 5 3 4 5 3 3 7 5 8 9 8 8 3 6 5 5 6 4 3 5 14 16 11 5 5 5 9 6 6 11 12 10 10 11 9 10 9 11 7 2 8 13 15 15 9 8 6 8 5 11 9 10 13
30 30 22 12 14 16 20 25 22 20 20 7 3 10 10 6 8 1 4 3 3 1 2 3 10 17 14 13 7 12 8 3 1 9 5 1 7 6 7 5 13 9 11 9 10 14 1 6 8 10 9 5 2 2 7 13 10 7 12 11 11 2 1 6 11 12 12 11 8 1 8 7 5 6 11 13 14 16 14 7 10 10 7 13 12 14 16
27 25 25 29 30 30 27 25 20 16 13 4 1 5 5 2 9 7 4 4 2 3 3 9 9 10 14 12 9 12 13 9 4 5 5 4 6 4 2 9 12 8 16 13 11 11 6 3 6 11 10 2 3 4 3 6 6 11 9 10 7 2 5 10 9 14 12 11 9 2 5 7 6 9 9 12 14 14 14 12 9 5 9 16 10 13 11
27 25 23 24 24 28 28 26 22 18 11 4 2 8 3 4 3 3 5 5 7 9 7 9 11 11 10 4 4 14 17 14 9 2 6 4 5 10 5 5 9 18 13 11 9 10 3 3 9 9 5 7 4 6 3 3 0 8 6 8 5 4 8 11 12 13 14 15 11 3 1 5 8 10 11 13 14 14 14 15 15 13 12 11 10 12 16
28 25 21 20 23 26 26 24 23 19 13 5 3 9 3 3 6 4 1 2 6 12 18 16 15 13 10 5 8 15 15 14 5 2 6 7 5 2 8 13 15 18 16 13 9 12 7 6 4 10 10 12 10 5 4 1 1 6 6 3 2 3 9 7 8 11 14 14 12 6 5 8 7 9 9 9 10 15 17 18 18 18 17 15 15 15 20
32 27 25 21 18 21 23 21 22 20 12 6 11 5 4 7 9 5 3 6 9 14 12 11 14 10 12 11 9 11 14 11 5 2 7 9 5 2 12 12 12 13 14 11 12 16 6 7 8 8 13 5 7 7 2 5 3 4 6 5 2 4 5 9 3 5 10 12 10 9 10 9 12 13 13 9 2 4 10 14 17 19 22 24 21 21 21
34 31 27 24 20 18 19 19 20 20 13 8 6 3 4 2 2 2 12 11 6 12 11 13 14 7 6 6 6 6 10 8 5 5 6 2 5 3 15 15 12 11 12 10 10 12 8 14 15 16 18 13 10 9 4 8 9 6 4 4 2 5 3 4 3 8 9 8 10 11 11 10 12 13 13 12 14 15 15 14 14 15 16 16 19 19 17
32 31 29 27 26 21 18 17 18 17 10 6 3 5 1 1 2 2 7 10 13 12 10 8 9 6 5 6 13 10 13 10 11 7 5 5 6 10 14 13 12 5 10 8 8 7 2 9 8 8 4 6 6 1 7 13 14 11 11 6 7 7 5 6 6 10 11 13 10 10 3 4 10 13 15 18 21 19 16 17 15 16 12 14 14 16 15
32 32 32 29 26 25 22 18 15 15 8 5 4 3 3 3 8 6 6 11 4 7 10 10 13 2 9 5 8 8 8 10 7 9 2 3 4 7 15 14 11 7 6 4 4 9 10 10 8 5 7 8 6 3 9 7 9 10 9 4 3 4 5 6 7 7 6 8 3 3 5 11 9 8 19 19 18 17 18 16 17 19 18 16 17 19 16
32 33 33 31 27 24 23 20 17 15 9 3 3 5 1 2 1 4 9 13 7 7 7 7 6 3 12 8 7 8 10 9 4 7 11 3 5 1 10 9 10 6 1 4 13 13 11 11 13 12 12 11 9 5 7 11 4 2 11 12 6 9 7 8 3 7 8 3 6 4 12 10 12 15 8 9 15 18 21 23 25 24 22 23 23 22 20
30 30 31 31 28 24 22 20 19 15 9 5 6 4 3 3 2 4 6 11 9 11 9 2 3 9 9 12 11 9 10 7 8 11 10 12 4 3 2 4 5 5 12 12 10 10 9 7 9 7 7 6 5 5 1 3 6 3 3 3 8 6 9 7 4 7 6 7 7 7 7 7 8 6 10 12 16 19 20 22 24 24 23 20 21 22 25
29 32 30 29 28 25 22 20 18 17 14 7 7 5 5 5 5 6 4 8 5 5 6 8 8 11 13 12 12 8 9 10 7 8 7 2 10 7 3 2 7 14 10 10 8 9 6 1 5 2 1 1 2 1 1 1 4 7 8 5 1 10 4 6 6 7 8 6 9 10 9 16 14 11 13 14 12 11 14 14 16 17 18 19 20 23 26
29 29 29 28 27 26 24 20 17 15 13 10 9 7 9 9 5 4 1 7 9 2 1 8 5 7 11 8 12 8 6 5 9 4 3 3 6 2 2 1 6 11 7 6 3 2 2 3 2 5 4 5 6 6 4 4 3 4 4 2 4 6 8 3 6 6 7 9 10 8 6 9 15 19 16 8 7 10 11 11 15 15 17 17 21 23 24
29 30 29 27 28 26 24 21 18 15 8 6 9 7 8 7 3 2 5 5 10 8 1 3 3 7 8 4 9 13 6 5 4 4 4 3 2 4 4 2 2 2 4 5 3 3 3 4 4 6 6 6 2 5 4 4 1 2 0 5 5 1 0 5 10 8 7 9 11 10 9 13 14 18 12 4 8 10 6 5 15 14 22 22 21 20 20
26 27 29 28 27 27 25 23 19 15 15 7 4 5 6 8 6 3 6 6 5 5 3 3 2 3 9 6 4 4 6 8 8 7 4 3 2 2 2 2 1 2 4 5 1 3 3 2 2 3 1 4 4 4 6 2 4 0 4 3 6 6 7 5 10 13 13 11 11 12 7 9 15 16 11 0 6 12 8 12 10 17 23 15 15 17 18
26 26 26 26 27 26 26 25 22 17 12 11 8 6 4 6 4 2 6 6 6 3 3 3 1 5 6 2 5 3 5 5 4 3 5 3 4 2 3 2 2 3 3 6 3 3 4 3 7 5 5 2 2 4 6 7 5 7 8 10 6 7 6 11 16 14 15 16 12 9 10 10 17 20 6 4 5 6 10 13 13 4 5 2 4 13 17
25 25 26 26 26 26 26 25 24 20 17 6 2 5 7 9 7 3 8 4 4 4 2 3 3 3 2 3 3 2 1 6 8 6 6 4 2 2 5 1 2 5 2 5 4 5 6 4 1 1 4 2 2 6 3 5 5 6 12 8 4 6 5 3 8 14 16 14 16 13 10 10 15 9 5 9 6 10 15 14 3 5 3 2 2 3 3
24 24 25 25 25 25 25 26 24 22 18 17 9 7 1 7 6 3 4 7 5 7 4 5 3 3 4 1 5 5 3 1 2 5 9 6 3 11 6 5 3 2 3 2 7 3 4 8 6 2 4 6 6 2 1 3 6 10 7 9 8 11 8 9 12 8 7 8 11 12 13 12 21 6 3 6 10 14 10 2 2 3 4 3 2 1 2
24 24 25 25 25 25 25 25 25 22 21 15 5 5 7 10 8 8 4 8 9 9 4 3 4 7 4 7 6 4 2 5 9 8 2 5 12 8 10 9 8 6 7 8 10 8 5 4 4 3 1 3 3 2 8 4 1 4 6 9 7 13 8 7 10 9 9 11 10 9 15 12 5 14 10 8 15 3 1 3 3 0 1 1 3 1 3
23 23 23 24 24 24 24 25 24 23 21 18 9 6 8 6 6 7 9 10 8 6 5 3 1 5 6 5 4 4 2 2 3 2 7 7 2 1 1 6 11 7 3 3 2 1 1 1 3 2 6 3 2 8 2 4 7 4 2 4 6 16 13 11 10 12 11 12 12 15 5 2 5 7 6 2 3 3 2 3 3 3 2 1 2 4 3
22 22 23 23 23 23 23 24 24 23 21 19 11 8 4 5 6 7 4 14 7 7 3 2 1 3 2 3 3 4 2 2 3 1 3 11 3 1 1 4 6 2 1 2 7 3 3 4 4 2 1 3 8 5 1 3 3 5 8 9 3 0 10 2 2 7 13 11 11 5 1 2 3 3 1 3 3 1 4 5 1 1 2 4 1 1 4
19 20 21 21 21 22 22 22 23 23 22 18 10 5 5 5 5 6 8 6 4 7 3 5 2 4 4 6 7 7 7 5 6 4 4 3 8 1 2 3 2 2 1 1 2 2 3 1 2 2 6 3 5 7 11 9 8 3 0 4 5 5 4 5 5 1 6 9 17 17 15 7 5 5 3 4 6 4 2 2 3 3 5 5 5 4 6
18 18 19 20 20 20 20 20 20 21 22 20 10 5 4 4 5 6 1 6 0 2 4 1 5 1 3 4 4 3 3 4 6 4 2 3 0 6 7 3 3 3 5 3 1 3 2 4 1 2 8 3 6 7 1 6 6 6 5 4 2 4 5 5 9 7 11 9 6 4 4 2 3 1 3 7 2 3 1 2 4 5 5 3 6 4 6
17 17 18 18 18 19 19 19 19 18 17 19 15 7 6 4 7 2 1 6 3 3 6 3 2 4 3 3 4 4 7 7 6 5 7 3 1 3 10 5 5 4 5 3 1 3 3 3 1 1 6 5 1 2 2 2 1 1 6 8 4 1 9 6 5 8 11 9 10 5 9 8 7 7 7 6 3 3 4 3 3 3 3 5 6 6 6
16 17 17 17 17 17 17 18 19 17 14 12 7 5 6 4 7 9 3 1 2 4 3 2 1 2 3 6 4 5 5 6 5 5 7 8 9 7 6 8 9 4 4 3 4 5 4 2 2 3 1 1 1 1 0 1 1 2 5 5 4 3 8 3 3 5 9 7 3 2 6 7 2 5 6 2 3 5 5 3 2 4 6 7 7 7 6
15 15 16 17 17 17 17 18 19 18 12 8 5 4 3 5 5 6 3 0 1 2 4 4 3 2 1 3 4 4 7 5 3 6 6 8 8 6 7 7 6 6 3 4 2 1 1 4 2 0 1 1 2 1 1 2 3 3 10 7 5 9 4 5 8 7 4 5 6 4 1 2 5 5 3 3 3 2 1 4 5 6 6 4 6 7 3
13 14 15 15 16 17 18 19 20 18 12 5 3 1 2 3 3 6 6 2 2 5 6 3 2 2 1 1 5 5 5 6 5 6 6 7 10 9 7 5 5 2 3 3 3 2 2 0 2 3 2 4 2 1 2 4 3 13 7 12 7 7 6 11 11 6 5 1 4 6 4 6 0 2 4 3 3 5 8 7 6 5 5 3 3 4 7
12 12 14 15 16 17 18 19 21 20 9 3 3 2 2 2 4 10 11 6 2 2 4 3 3 0 2 2 4 4 5 6 5 8 9 7 7 6 4 4 4 3 3 2 2 2 1 1 1 2 2 2 2 2 2 1 3 9 7 13 12 9 10 10 4 9 5 3 4 2 3 3 0 5 6 5 3 4 4 6 7 7 7 5 5 6 6
11 11 11 12 13 14 15 17 19 21 12 4 3 4 3 1 4 8 14 7 2 3 3 3 2 0 2 0 2 4 4 4 6 7 7 5 4 3 2 1 3 2 1 1 2 1 1 1 1 1 1 2 2 2 2 3 4 2 5 8 11 10 10 10 6 2 4 4 4 3 5 4 1 6 4 5 6 7 7 7 9 10 12 12 10 7 7
9 9 9 10 11 12 12 15 16 14 10 10 6 3 1 1 5 10 11 6 1 1 2 4 1 1 0 0 0 1 1 2 1 2 3 3 3 5 5 5 2 3 2 2 1 1 0 1 1 0 1 2 3 1 1 1 10 7 4 6 3 3 1 1 2 1 2 1 4 9 8 4 4 3 4 6 9 7 8 10 10 10 10 9 7 5 6
8 8 7 7 10 11 12 13 14 9 4 7 11 10 9 12 13 12 6 2 6 2 1 4 2 1 1 2 2 0 2 1 2 1 2 4 1 2 2 3 2 2 2 3 0 1 1 0 1 1 0 2 1 2 1 9 7 6 4 2 2 2 3 1 4 3 3 4 3 5 7 4 7 9 8 5 6 8 8 8 7 6 6 8 9 8 7
6 6 6 8 9 11 12 12 13 10 10 6 3 6 6 13 8 14 5 6 4 1 2 3 2 2 0 2 2 1 2 1 0 1 2 2 0 2 1 1 1 1 2 0 0 2 1 2 1 1 1 0 1 1 7 6 8 7 6 3 6 7 1 2 3 4 5 6 7 5 5 6 7 8 9 8 6 6 7 6 5 8 9 9 10 8 7
5 5 5 6 7 7 11 10 8 7 2 1 0 3 5 13 8 6 7 1 0 3 3 2 2 3 1 2 1 1 0 1 1 2 2 1 2 1 0 2 1 1 0 2 1 0 1 3 2 1 3 1 2 6 7 5 8 5 3 5 4 6 7 7 3 4 6 6 4 6 7 7 8 9 7 7 7 7 9 10 11 13 13 10 10 10 9
5 5 5 6 6 5 2 7 6 4 4 1 2 7 16 12 5 3 3 4 4 3 2 0 1 1 3 3 2 0 0 2 1 1 1 0 1 1 1 1 1 0 1 0 1 1 1 2 3 3 2 3 10 5 3 3 2 4 6 4 3 5 3 3 8 10 8 8 9 7 8 7 8 9 6 6 6 6 8 10 9 6 11 14 13 10 9
7 5 6 7 4 3 4 1 3 2 1 5 9 14 12 8 1 2 4 3 3 3 3 2 2 2 2 1 0 3 1 2 1 0 1 1 1 1 1 1 1 2 1 0 1 4 2 2 1 2 4 8 5 6 4 5 4 2 4 3 2 3 3 3 6 9 14 12 10 8 1 6 9 4 6 6 8 8 9 10 9 7 13 15 16 10 8
7 10 5 3 3 3 2 2 1 6 11 11 9 3 6 7 2 3 4 4 3 3 3 3 2 0 1 1 3 0 1 0 1 1 0 1 2 0 0 0 2 2 4 2 4 3 2 1 4 6 8 10 10 5 6 5 5 5 5 3 2 2 3 4 6 7 9 15 16 17 19 17 14 7 5 12 8 9 10 9 10 8 9 11 12 12 13
7 2 4 3 3 0 1 1 3 10 5 1 4 1 2 1 2 2 1 1 1 2 1 2 0 0 1 3 1 3 1 2 1 2 3 0 1 1 0 1 0 3 1 1 2 7 2 4 4 3 9 4 5 3 5 5 5 5 3 2 1 1 2 2 2 3 1 3 5 5 4 8 13 17 9 10 10 6 5 6 9 10 11 13 14 15 15
4 3 1 1 2 0 3 5 9 4 1 0 3 3 0 2 2 1 1 2 1 1 1 1 1 1 1 1 1 1 1 1 1 0 1 1 0 1 0 2 2 2 3 3 2 2 2 2 3 2 10 4 2 4 3 2 3 3 1 2 2 2 3 2 3 2 3 5 6 7 7 9 10 10 13 12 13 15 12 5 6 8 9 12 14 16 17
2 2 1 1 2 2 2 2 2 3 2 1 2 3 1 1 1 1 1 2 0 1 0 1 2 1 2 2 2 2 2 4 1 1 2 1 1 4 2 1 0 2 3 3 1 3 0 0 2 5 6 3 3 3 3 3 3 3 3 5 4 5 5 6 6 6 6 6 5 6 6 8 9 10 10 11 12 13 14 13 12 10 12 13 14 15 14
4 2 1 3 1 0 1 2 3 1 2 1 3 0 0 2 1 1 0 1 1 1 3 1 1 2 1 1 0 1 1 0 1 1 1 1 1 2 2 1 2 2 3 2 3 0 2 5 5 7 0 1 1 2 4 5 5 8 7 6 6 5 5 6 8 8 6 7 8 8 8 8 10 9 9 10 11 12 14 15 16 15 14 14 14 14 14
9 6 4 3 2 3 2 2 3 2 1 2 3 1 2 2 0 1 0 1 1 1 2 2 2 2 1 1 1 1 1 2 1 1 2 2 1 3 1 1 1 1 4 1 1 1 3 6 7 5 4 4 2 2 2 3 3 5 5 5 4 3 4 6 6 7 8 8 9 9 9 10 11 10 11 12 13 18 17 15 15 16 16 15 15 16 15
3 3 4 3 2 2 1 0 1 1 1 1 1 1 0 1 2 2 1 1 1 1 1 1 1 1 2 4 1 2 3 1 2 1 1 1 2 2 2 4 4 4 3 1 1 4 5 3 7 2 4 2 3 4 4 4 4 4 5 4 3 5 5 5 5 7 8 7 8 9 9 10 12 12 11 12 13 17 18 18 15 15 16 16 16 16 15
2 3 2 1 1 2 1 2 3 2 2 2 3 2 3 1 2 3 4 1 2 2 2 1 1 1 2 2 1 1 2 1 4 3 2 1 2 2 1 3 1 2 1 3 2 3 1 8 1 4 1 1 3 3 2 3 3 4 5 5 5 4 4 5 6 6 7 7 9 9 9 10 11 12 12 13 13 13 14 17 14 13 14 14 14 15 15
2 1 1 3 2 3 1 0 1 1 2 2 3 6 5 5 4 2 1 2 2 1 2 2 2 3 3 1 2 1 1 1 1 1 0 1 2 3 3 0 2 0 2 1 3 8 10 1 1 0 2 5 5 3 2 3 2 2 3 7 6 6 6 7 7 8 9 8 8 7 10 10 11 12 13 12 12 13 13 14 12 12 14 15 15 15 14
2 2 2 1 2 1 1 1 4 4 1 2 2 2 1 2 3 0 1 1 2 2 2 1 1 1 4 0 1 1 1 1 1 2 1 0 2 2 2 2 4 4 3 5 8 8 4 1 2 3 4 5 5 4 3 4 3 3 5 5 6 8 7 8 8 9 8 8 9 9 10 10 12 12 12 13 13 12 13 12 12 11 10 11 12 12 13
1 0 1 1 3 1 2 4 0 1 0 0 0 2 2 1 1 1 0 1 0 2 2 3 3 1 3 2 2 1 0 1 1 3 2 1 1 1 2 3 5 3 3 3 9 4 2 1 2 4 4 3 5 8 8 7 7 7 7 7 8 8 8 8 10 10 9 10 10 10 11 12 11 12 12 13 14 12 10 10 8 6 7 9 9 10 11
3 2 1 2 1 2 1 1 1 2 1 0 1 0 0 1 2 1 1 0 1 2 1 2 1 2 1 1 1 1 0 1 1 2 1 0 2 4 3 5 3 7 6 6 11 3 1 1 1 2 4 3 3 4 6 5 5 6 7 8 9 9 8 9 10 10 10 10 10 11 11 11 10 10 11 11 10 10 7 6 5 5 6 7 8 8 8
1 1 2 3 1 1 1 1 2 4 2 1 1 2 2 1 2 2 2 2 0 2 0 2 1 3 0 1 1 2 2 1 2 1 1 4 2 2 0 5 4 4 4 1 3 3 3 2 1 4 4 4 5 4 5 6 4 6 7 7 7 8 9 10 12 11 11 11 11 11 12 9 8 7 8 9 8 8 7 5 4 4 5 5 6 7 7
0 0 2 1 4 5 6 3 6 4 3 6 5 6 7 7 5 5 3 3 4 4 4 2 1 2 1 2 1 0 3 2 2 3 3 3 2 2 4 6 6 6 5 1 2 2 4 3 1 3 5 6 6 7 5 7 8 9 9 9 9 8 9 9 10 11 11 9 9 9 8 8 9 9 9 8 8 8 7 5 4 4 5 5 5 7 7
1 1 2 1 1 1 3 1 1 3 4 3 5 3 5 5 4 3 4 5 4 4 3 2 3 2 2 3 5 2 1 1 2 0 1 5 3 3 5 8 9 3 3 3 4 3 3 2 3 4 4 5 5 7 7 7 7 8 8 9 9 9 10 11 11 10 11 10 8 8 9 9 10 11 10 7 7 7 7 7 6 7 6 5 5 7 7
Wind_Direction
28 98 138 189 181 176 179 174 167 168 156 153 160 133 141 153 106 113 145 150 139 139 116 94 108 109 106 104 84 107 64 129 167 137 220 91 305 89 64 151 135 154 141 146 142 158 162 172 185 163 182 171 116 131 140 140 156 162 171 170 167 53 161 166 190 191 3 16 1 23 16 120 215 226 235 216 209 201 217 223 2 211 207 227 236 245 270
23 70 99 170 184 179 180 169 161 157 157 153 152 132 120 115 124 132 149 157 151 143 156 141 130 114 124 103 109 347 123 135 146 142 142 116 147 114 129 58 359 137 138 151 161 158 125 211 160 137 148 166 92 143 156 154 163 171 183 188 165 197 184 196 198 201 198 259 305 311 358 311 244 208 205 216 216 217 233 275 35 244 204 213 215 241 247
21 37 103 129 176 167 163 158 162 156 147 137 165 123 127 96 64 108 106 157 23 164 157 145 140 141 140 140 131 128 78 340 138 128 120 96 117 126 49 133 130 72 146 142 139 164 66 143 219 47 182 151 71 149 171 173 172 174 126 93 151 204 159 189 213 191 196 208 212 211 208 203 200 249 231 217 215 215 211 224 203 238 216 221 227 245 253
17 30 61 102 136 127 142 143 123 120 130 116 138 130 127 143 116 45 88 112 33 359 240 28 144 138 136 124 136 125 122 82 59 106 67 176 88 68 127 83 111 124 133 143 166 174 187 160 176 171 175 157 200 175 179 179 177 130 123 140 163 167 237 239 214 212 209 205 207 94 55 85 183 202 208 215 212 218 221 232 232 228 204 227 217 232 259
35 22 37 63 70 74 67 67 72 75 87 55 181 45 88 38 120 145 106 71 308 95 28 127 139 143 148 134 154 143 139 142 78 335 118 228 131 90 78 158 137 170 153 166 171 168 109 21 146 183 150 66 80 58 149 168 176 128 137 158 120 164 215 215 223 238 238 231 226 81 193 233 213 206 215 221 224 221 224 223 235 205 237 245 232 237 241
44 37 20 18 38 54 56 56 53 51 39 52 212 77 7 113 341 88 141 148 165 129 130 150 132 127 139 85 117 143 141 153 148 55 11 100 131 125 10 167 160 164 165 144 154 164 129 129 173 162 134 129 129 108 11 142 145 169 152 182 183 165 216 209 206 230 238 243 241 142 149 227 238 220 217 214 212 218 222 232 242 243 238 253 243 234 235
44 47 48 32 14 27 40 40 40 36 35 53 117 102 1 41 107 92 274 121 162 157 151 145 144 140 135 105 123 149 148 148 133 143 141 142 176 139 145 183 170 164 155 153 162 160 144 207 166 168 171 164 149 119 91 344 343 182 155 109 10 173 229 224 208 234 237 239 240 207 206 234 244 240 237 243 218 217 222 229 230 229 235 239 247 255 250
40 47 49 48 32 24 27 30 30 20 13 63 70 44 131 150 150 142 343 72 104 108 119 127 136 138 144 139 162 150 152 135 134 56 141 155 169 339 141 148 153 164 163 159 163 186 193 144 142 178 140 128 173 139 114 134 63 199 161 142 296 205 230 199 145 225 248 249 248 231 222 222 240 242 245 241 263 261 238 244 243 241 240 238 234 239 250
37 41 48 55 48 27 24 24 20 18 8 56 60 67 25 93 351 98 134 114 112 122 138 146 150 128 141 133 147 125 146 127 105 97 346 147 128 178 146 141 144 158 165 173 181 161 130 156 176 164 156 165 170 151 214 156 143 164 141 146 209 188 245 103 162 233 246 241 242 240 231 231 243 248 244 241 236 242 231 229 222 230 237 238 242 241 245
35 38 41 45 48 46 43 33 16 6 24 81 72 59 262 60 334 77 105 107 147 135 144 133 130 161 171 136 164 162 157 141 138 88 29 30 107 125 127 136 129 128 171 180 143 146 128 142 117 145 101 95 117 115 154 168 163 172 184 155 165 181 199 195 190 220 238 243 230 243 251 266 255 238 233 232 232 228 234 239 239 240 246 254 243 247 239
34 36 37 38 41 43 46 45 29 10 25 47 83 58 357 63 103 100 89 100 126 138 145 161 162 98 130 117 112 70 113 150 150 131 106 49 35 130 131 144 144 151 146 114 115 110 90 83 80 52 71 115 112 72 150 176 168 166 151 147 158 168 197 217 195 234 254 251 222 216 244 242 238 231 227 224 236 239 242 244 242 242 234 239 242 251 254
34 34 36 37 38 38 40 44 42 32 42 44 90 85 7 273 333 64 128 123 125 145 152 154 150 165 145 112 88 111 132 134 84 98 120 78 102 165 136 138 134 136 123 148 116 112 107 70 60 59 61 58 54 59 148 160 198 265 170 166 167 179 184 209 161 224 243 230 120 228 241 243 241 246 265 252 247 246 247 245 242 239 238 241 246 253 258
33 32 32 33 35 39 39 40 43 40 37 55 55 66 345 264 94 101 108 125 137 153 148 110 68 98 103 99 88 97 106 93 90 89 92 121 110 120 81 126 103 108 154 149 133 114 90 89 67 79 70 57 51 38 340 219 174 174 290 179 157 173 182 197 202 223 260 268 237 240 233 248 269 283 258 243 242 242 241 248 248 247 245 242 243 247 250
34 31 30 30 32 34 39 40 39 42 36 60 71 33 3 356 58 50 64 115 67 29 93 82 97 117 114 111 112 118 101 80 83 91 96 3 132 134 91 57 142 150 172 145 119 109 95 120 119 124 58 40 29 216 215 343 237 197 199 221 166 151 153 187 222 190 230 236 246 244 320 300 275 266 243 207 212 217 223 249 252 244 237 234 240 242 244
32 30 28 27 28 30 34 36 41 43 49 60 95 54 31 18 33 97 339 94 115 65 81 145 139 108 102 109 124 117 116 133 111 49 22 50 54 8 39 11 124 148 191 132 102 60 121 128 123 150 131 169 199 201 63 212 315 295 261 185 156 151 175 171 208 221 209 259 271 271 254 253 267 232 237 230 197 230 232 235 263 258 251 233 227 234 238
30 29 27 25 24 26 29 34 34 34 40 57 69 82 52 13 317 42 79 96 123 120 28 345 358 122 109 101 131 131 133 127 105 105 96 37 51 70 16 4 115 147 88 59 102 119 147 146 171 154 191 186 161 88 230 148 239 357 270 208 159 270 189 156 191 237 234 234 245 242 237 243 245 278 270 186 184 219 233 235 254 257 256 240 234 235 239
26 28 27 25 23 22 23 27 34 35 29 38 80 59 57 6 29 65 92 47 49 85 20 348 325 53 103 94 87 104 147 139 145 132 142 128 112 85 69 3 13 317 163 100 171 144 150 154 135 172 76 132 134 204 81 146 174 179 76 141 203 189 197 190 217 228 232 232 234 244 227 254 258 255 280 205 191 205 184 235 247 242 252 253 237 234 240
24 25 26 26 23 21 20 21 25 33 41 45 69 74 45 1 34 336 67 98 108 88 41 7 358 145 143 145 127 60 81 89 55 68 97 141 137 152 155 145 124 315 279 163 160 157 173 173 183 188 194 148 140 103 215 156 165 171 162 166 167 189 201 196 214 218 228 227 242 251 258 251 259 264 245 133 116 136 195 225 238 250 47 43 236 221 230
22 23 24 25 24 21 19 19 21 22 26 36 184 56 37 5 348 11 107 81 88 110 18 41 26 34 19 355 53 119 239 152 139 107 121 125 204 181 134 168 163 167 201 176 154 179 186 198 59 159 191 202 193 207 98 129 182 127 134 148 188 200 187 212 215 226 225 226 232 238 259 253 250 266 140 144 136 232 236 236 231 121 106 69 194 133 65
20 21 23 24 24 22 20 18 19 21 24 25 56 95 252 5 360 3 104 108 73 105 53 29 359 64 349 129 145 139 120 55 235 134 167 140 140 140 115 146 237 90 125 151 184 188 178 202 183 127 218 186 196 94 227 222 128 162 171 181 170 176 171 196 200 204 218 221 234 232 249 238 234 197 22 197 219 243 247 54 294 37 140 174 156 69 119
17 20 21 22 22 22 21 20 18 19 20 19 30 93 54 11 2 16 17 120 124 104 71 34 51 56 54 59 41 6 298 191 173 166 164 121 172 159 170 203 160 156 171 172 199 187 198 198 146 186 262 188 184 133 228 206 230 263 154 173 198 156 188 196 217 178 206 199 209 215 220 247 120 166 209 180 221 248 92 213 184 97 340 349 32 330 299
15 16 18 18 20 21 22 21 19 20 22 18 13 78 65 343 356 20 50 57 74 75 102 142 228 100 90 81 58 19 80 35 315 312 136 131 261 241 54 115 147 175 169 153 89 74 278 143 64 164 189 178 44 211 148 174 229 155 332 126 205 184 197 181 197 179 198 209 216 225 250 196 208 209 195 238 293 35 150 37 58 84 340 334 53 347 323
15 14 14 16 18 22 23 23 22 21 23 22 33 61 73 338 0 329 49 78 75 85 88 80 198 133 163 137 109 43 313 290 328 5 319 146 162 270 135 157 167 84 80 235 200 174 155 137 197 133 61 197 187 186 270 247 241 141 184 209 282 208 208 70 204 217 221 255 249 243 202 277 262 263 205 232 240 312 103 94 70 156 307 251 243 188 270
16 14 14 15 17 22 25 24 25 24 24 26 31 80 60 35 347 346 71 69 98 112 57 27 54 32 360 352 341 339 6 12 5 307 282 268 154 141 2 302 72 72 308 195 352 137 151 163 189 149 215 196 138 197 203 219 222 178 161 213 221 218 134 190 223 146 163 236 233 228 237 212 244 271 249 210 226 215 152 84 116 18 273 249 243 212 232
11 12 15 16 17 20 23 24 24 27 28 24 29 56 93 47 21 356 52 114 352 95 116 33 31 348 307 290 271 302 357 331 298 318 353 23 353 170 179 128 150 160 180 133 123 98 90 141 153 181 212 205 174 211 158 203 232 157 208 212 130 244 162 212 226 217 204 236 65 47 35 213 279 234 290 277 189 104 121 193 162 164 221 234 265 240 239
8 9 12 13 15 17 19 19 20 23 33 35 36 44 55 30 319 306 78 48 80 86 103 100 22 355 315 340 11 331 314 326 326 356 39 35 41 87 121 126 70 40 81 57 51 97 117 79 117 95 197 203 97 231 190 229 44 95 229 224 155 113 136 212 183 210 248 296 277 287 308 290 243 246 266 267 321 143 145 196 214 215 252 254 256 230 241
5 7 5 8 10 14 16 14 14 14 32 47 42 54 69 52 17 31 32 314 83 48 40 94 71 322 15 49 340 334 338 333 338 33 43 34 46 48 89 116 116 93 97 72 32 104 54 92 117 199 203 201 96 189 42 57 185 200 228 210 114 123 205 160 100 226 238 234 225 154 257 262 317 218 209 178 101 133 152 150 210 224 233 239 252 258 235
3 3 4 5 6 9 12 12 6 5 15 83 69 60 41 63 45 49 51 285 313 170 146 129 135 150 66 52 356 331 344 342 2 59 55 45 46 56 72 78 100 122 143 131 143 110 111 151 217 104 47 291 113 200 148 22 17 288 250 210 154 212 169 148 218 214 253 138 190 200 240 308 231 261 94 104 167 189 209 203 226 228 215 247 273 289 253
2 1 1 4 3 7 10 7 6 0 3 66 93 78 4 73 60 41 47 41 130 93 91 81 69 21 96 17 360 352 353 1 30 57 69 56 50 44 55 58 73 100 88 49 66 84 132 51 86 153 162 238 115 266 68 230 212 239 242 116 174 228 156 202 224 254 258 192 205 201 187 253 17 345 313 338 354 321 304 316 319 320 315 255 245 247 290
4 1 360 360 3 12 11 10 11 6 5 71 58 41 33 325 6 19 0 18 11 109 105 134 122 179 339 13 357 332 335 11 41 58 57 59 54 49 25 53 67 53 63 102 171 131 150 127 213 303 283 306 173 165 155 218 230 258 105 160 194 202 215 226 213 222 242 155 241 341 290 318 19 284 278 267 292 326 347 337 325 320 303 271 261 276 239
8 4 358 359 3 12 15 15 17 11 15 59 70 50 37 25 327 7 340 357 356 97 100 75 115 197 48 99 113 357 336 357 53 59 50 44 56 36 3 60 54 348 85 43 57 59 112 143 171 209 65 246 134 147 200 165 249 284 231 186 180 204 209 223 234 302 28 312 312 278 264 275 213 283 304 74 63 28 346 317 304 297 294 299 291 288 283
10 6 5 358 6 12 9 16 17 20 29 45 55 91 156 292 289 322 330 342 323 59 66 109 71 17 283 353 270 210 276 328 7 23 31 4 37 16 27 31 60 8 54 99 81 74 249 332 76 245 122 150 117 83 183 163 243 245 140 215 235 205 57 87 291 79 57 244 314 325 313 346 55 312 297 30 347 336 298 286 284 281 280 280 292 290 274
6 6 5 13 8 15 12 17 11 32 38 82 82 66 17 4 353 350 324 337 61 54 111 74 100 177 101 221 335 302 183 155 26 6 54 351 31 4 24 344 10 41 359 84 337 149 19 51 58 141 257 357 177 181 196 228 235 95 163 121 225 173 219 62 57 26 322 345 28 271 288 339 304 309 317 326 306 287 284 283 283 283 299 294 293 297 289
9 4 18 36 32 32 23 25 29 33 35 30 17 357 331 346 0 352 16 80 90 153 60 104 99 76 157 327 82 296 40 144 10 326 90 27 197 26 128 78 272 112 320 99 152 81 358 60 182 218 11 287 95 55 254 248 114 203 219 37 333 302 224 199 147 123 39 5 354 329 314 305 297 295 301 304 292 295 294 295 314 312 298 290 293 306 307
353 19 38 51 45 49 47 42 30 44 91 37 230 244 308 349 359 359 14 89 65 350 36 27 103 96 63 12 35 275 284 79 49 357 101 29 15 90 262 80 32 144 163 70 68 179 126 230 129 152 212 97 114 232 242 86 158 198 105 92 2 327 326 303 127 62 331 306 268 264 264 267 271 275 288 307 313 321 343 349 351 341 326 322 327 331 335
25 45 53 50 45 46 31 30 32 6 38 0 291 302 321 326 348 355 26 50 94 156 85 217 60 133 131 138 149 233 1 61 3 342 15 143 44 46 61 99 115 95 44 76 206 125 202 146 136 235 152 164 222 210 130 149 178 79 87 98 5 18 14 332 313 315 286 257 250 245 235 231 247 286 307 317 348 23 354 332 329 341 315 305 307 313 314
55 36 48 32 25 42 35 258 321 51 336 280 289 300 322 340 329 15 6 24 6 76 120 156 81 189 163 176 301 276 135 149 18 26 353 75 142 15 29 57 228 131 75 273 171 179 221 48 240 225 201 217 218 82 90 56 74 74 86 81 35 358 341 326 310 299 309 308 296 273 280 321 307 322 345 332 329 330 328 323 325 327 309 301 302 300 294
70 52 54 18 35 42 0 331 283 293 311 317 332 15 359 24 38 342 5 24 301 36 356 59 90 223 341 103 95 296 77 135 12 133 349 234 107 296 275 117 235 140 238 216 228 171 87 171 226 233 256 245 262 51 62 82 79 69 71 65 9 2 340 328 336 343 336 321 312 331 336 326 318 318 2 316 324 315 309 309 309 301 293 292 295 304 311
58 54 53 35 88 129 188 233 275 299 295 53 28 67 342 0 42 16 313 287 348 15 303 74 259 153 81 61 299 325 81 163 85 22 133 171 111 291 187 200 279 82 290 8 270 149 228 207 241 229 258 209 205 111 39 76 84 79 90 61 282 294 308 308 2 35 275 261 307 332 251 290 312 311 337 321 311 292 275 308 316 317 321 314 312 313 306
30 40 34 24 78 179 252 278 314 300 107 38 342 94 29 328 67 308 348 37 342 338 4 356 189 172 195 145 139 43 357 50 60 339 168 319 315 148 255 71 257 100 233 184 219 96 191 235 224 246 269 246 146 63 37 74 109 105 77 8 310 324 331 328 336 339 309 291 291 283 288 285 291 292 306 313 315 312 313 321 309 299 302 300 302 306 304
48 94 59 96 231 228 260 286 351 47 55 38 9 5 58 19 30 227 10 52 86 247 356 330 1 48 42 44 45 122 8 66 82 122 117 121 229 85 54 163 7 86 251 220 246 91 208 51 249 222 249 71 164 9 346 3 34 7 19 342 356 340 346 332 329 327 326 308 300 291 283 285 286 287 290 293 295 294 297 304 307 304 304 298 298 294 298
201 176 183 135 133 286 353 23 57 55 14 115 116 80 238 253 341 7 146 141 258 333 337 339 27 48 318 4 105 94 323 175 97 39 71 337 297 129 229 321 354 145 245 220 78 249 155 233 236 247 230 164 306 341 340 0 346 350 342 344 339 330 330 319 316 313 312 299 295 294 291 291 288 287 287 294 289 290 293 299 299 300 296 294 295 294 294
95 81 75 49 30 3 43 35 320 92 90 353 42 16 355 39 217 146 279 41 356 96 264 5 274 6 346 36 334 48 162 331 354 348 77 219 17 59 86 342 87 287 240 59 92 167 190 221 242 238 94 188 148 246 352 288 315 292 300 313 296 301 304 299 289 293 303 301 295 291 293 293 288 284 287 286 287 287 285 284 287 292 296 295 293 294 294
47 38 43 347 57 299 58 352 312 49 354 55 100 198 224 32 293 66 44 238 153 186 266 101 14 70 174 3 61 6 8 18 116 78 19 304 70 236 187 227 229 247 57 334 205 198 229 228 242 252 143 151 217 238 254 264 271 265 268 261 273 289 279 264 276 282 283 281 277 280 282 282 284 286 283 277 273 275 279 281 279 281 283 286 286 287 290
80 2 37 23 30 283 63 262 353 114 214 250 157 196 162 176 236 197 185 219 142 182 124 47 189 105 69 301 57 334 14 235 333 94 252 126 93 253 147 255 253 18 203 255 264 289 312 248 214 74 89 209 215 202 202 227 240 253 279 290 275 260 270 280 278 279 276 276 278 284 281 279 280 280 279 276 272 267 272 278 284 284 283 283 282 282 282
80 157 83 77 338 313 93 194 359 328 283 167 208 193 177 230 167 198 212 64 115 125 150 198 169 117 100 261 135 190 6 50 60 246 268 19 157 244 213 199 67 72 281 218 240 236 233 187 82 305 313 283 303 309 310 276 270 268 336 306 304 304 294 285 282 277 275 277 278 276 276 280 278 278 276 271 270 272 272 275 280 280 281 281 281 282 284
73 13 87 118 113 274 66 175 226 208 186 217 236 184 184 208 201 134 126 131 125 178 123 234 35 65 121 7 56 22 35 59 133 258 86 223 199 256 22 125 231 203 200 235 234 245 265 13 277 264 281 299 298 302 302 300 284 281 277 277 294 295 300 299 294 287 285 290 287 285 281 280 279 279 282 283 276 271 272 276 277 277 279 278 282 283 283
105 240 98 190 236 170 192 245 268 291 202 193 275 238 280 314 67 180 304 34 2 122 119 91 68 7 34 292 82 148 270 270 52 290 171 234 14 284 239 231 234 228 207 240 260 260 267 189 270 308 313 329 317 317 322 323 323 315 304 303 298 297 294 294 291 288 290 288 282 279 277 278 276 279 279 279 281 278 274 273 274 281 282 282 284 282 281
128 118 185 202 188 158 211 310 34 262 244 312 276 229 127 146 208 252 117 84 103 121 174 108 172 93 73 330 60 37 298 255 142 245 77 49 177 212 186 241 210 246 229 215 254 241 197 246 229 266 275 287 274 257 272 280 283 286 286 285 288 285 286 279 274 276 276 272 268 270 271 273 277 278 280 281 280 281 274 263 270 280 278 281 290 294 295
85 315 41 79 9 291 207 244 38 302 298 327 213 234 178 168 263 270 160 117 47 103 169 114 113 89 208 90 21 17 271 278 186 270 196 228 211 257 299 264 211 222 258 246 253 253 254 255 288 297 286 286 284 271 275 283 281 281 280 277 277 283 279 280 286 286 281 277 278 276 277 282 282 280 280 284 287 289 288 274 266 274 286 291 300 313 316
4 135 234 177 189 219 138 173 191 218 256 239 203 210 178 193 178 182 187 131 128 73 47 127 172 100 88 36 72 202 245 148 97 212 206 216 176 163 213 232 241 225 240 212 224 245 278 289 283 280 295 289 281 281 273 278 288 290 292 292 290 288 288 284 283 288 291 297 299 299 301 296 293 292 289 285 289 299 297 284 259 282 304 311 312 319 324
104 225 235 289 49 185 176 79 32 204 212 210 204 204 148 188 204 195 177 131 134 129 179 186 102 82 85 190 215 200 11 82 226 105 299 252 187 185 214 217 243 237 217 254 279 254 249 260 234 244 249 271 285 295 302 304 302 300 302 302 303 307 308 309 307 305 305 309 314 313 310 313 317 315 316 318 321 325 326 328 330 333 333 327 327 332 332